SV2BZQ-2 Thessalonik GR current weather conditions

sailwx.info

Wind from 282 at 3 knots gusting 6

Air temperature 20.0° C
Dewpoint 18.3° C

Last reported at 2014-Jul-24 04:44 UTC.
Time now 2014-Jul-24 06:29 UTC

Location: N 40°41' E 022°51'.
View on Google Maps.

See reports from other nearby stations

  
Tides and Currents Weather Stations Pressure Air Temp Water Temp Dewpoint Dewpoint Depression Visibility Wind Speed Wind Dir Waves Ship Positions
date/time (UTC)wind fromknots sea level pressurealtimeterstation pressurevisibilityair tempwater tempwave heightnotes
2014-Jul-24 04:44 282 3 gusting 6 20.0
2014-Jul-24 04:34 278 3 gusting 6 20.0
2014-Jul-24 04:24 283 3 gusting 6 20.0
2014-Jul-24 04:20 283 2 gusting 6 19.4
2014-Jul-24 04:14 284 2 gusting 3 20.0
2014-Jul-24 04:05 319 1 gusting 2 19.4
2014-Jul-24 03:54 317 1 gusting 3 20.0
2014-Jul-24 03:51 317 19.4
2014-Jul-24 03:44 317 1 gusting 2 20.0
2014-Jul-24 03:35 317 19.4
2014-Jul-24 03:24 317 20.0
2014-Jul-24 03:20 317 19.4
2014-Jul-24 03:14 317 20.0
2014-Jul-24 03:05 317 0 gusting 4 19.4
2014-Jul-24 02:54 320 20.0
2014-Jul-24 02:50 320 20.0
2014-Jul-24 02:44 321 0 gusting 2 20.0
2014-Jul-24 02:34 321 20.0
2014-Jul-24 02:24 321 0 gusting 2 20.6
2014-Jul-24 02:19 321 0 gusting 3 20.0
2014-Jul-24 02:14 323 20.6
2014-Jul-24 02:04 323 20.6
2014-Jul-24 01:54 323 20.6
2014-Jul-24 01:49 322 20.0
2014-Jul-24 01:44 323 20.6
2014-Jul-24 01:34 323 0 gusting 2 20.6
2014-Jul-24 01:24 323 20.6
2014-Jul-24 01:19 322 20.0
2014-Jul-24 01:14 323 20.6
2014-Jul-24 01:04 323 20.6
2014-Jul-24 00:54 323 0 gusting 1 20.6
2014-Jul-24 00:50 325 0 gusting 3 20.6
2014-Jul-24 00:44 027 2 gusting 3 20.6
2014-Jul-24 00:34 072 0 gusting 2 21.1
2014-Jul-24 00:24 073 21.1
2014-Jul-24 00:18 072 20.6
2014-Jul-24 00:14 073 21.1
2014-Jul-24 00:04 073 1 gusting 2 21.1
2014-Jul-23 23:54 078 21.1
2014-Jul-23 23:49 078 21.1
2014-Jul-23 23:44 078 21.1
2014-Jul-23 23:34 078 21.1
2014-Jul-23 23:24 078 21.1
2014-Jul-23 23:18 078 21.1
2014-Jul-23 23:14 078 21.7
2014-Jul-23 23:04 078 21.7
2014-Jul-23 22:54 078 21.7
2014-Jul-23 22:49 078 21.1
2014-Jul-23 22:44 078 21.7
2014-Jul-23 22:34 078 21.7
2014-Jul-23 22:24 078 21.7
2014-Jul-23 22:18 078 21.7
2014-Jul-23 22:14 078 0 gusting 2 22.2
2014-Jul-23 22:04 078 22.2
2014-Jul-23 21:54 078 22.2
2014-Jul-23 21:48 078 22.2
2014-Jul-23 21:44 078 22.8
2014-Jul-23 21:34 079 22.8
2014-Jul-23 21:24 079 22.8
2014-Jul-23 21:17 079 22.8
2014-Jul-23 21:14 079 23.3
2014-Jul-23 21:04 080 23.3
2014-Jul-23 20:54 080 0 gusting 1 23.3
2014-Jul-23 20:47 080 23.3
2014-Jul-23 20:44 080 23.3
2014-Jul-23 20:34 080 23.9
2014-Jul-23 20:24 080 23.9
2014-Jul-23 20:17 080 23.3
2014-Jul-23 20:14 080 23.9
2014-Jul-23 20:04 080 0 gusting 2 23.9
2014-Jul-23 19:54 080 23.9
2014-Jul-23 19:47 079 23.3
2014-Jul-23 19:44 080 0 gusting 1 23.9
2014-Jul-23 19:34 080 23.9
2014-Jul-23 19:24 080 23.9
2014-Jul-23 19:17 080 0 gusting 2 23.3
2014-Jul-23 19:14 080 23.9
2014-Jul-23 19:04 080 2 gusting 3 23.9
2014-Jul-23 18:54 182 23.9
2014-Jul-23 18:47 182 23.9
2014-Jul-23 18:44 183 23.9
2014-Jul-23 18:34 183 23.9
2014-Jul-23 18:24 183 23.9
2014-Jul-23 18:16 183 23.9
2014-Jul-23 18:04 183 23.9
2014-Jul-23 18:01 183 23.9
2014-Jul-23 17:54 183 23.9
2014-Jul-23 17:46 187 23.9
2014-Jul-23 17:34 187 23.9
2014-Jul-23 17:24 191 23.9
2014-Jul-23 17:16 198 23.9
2014-Jul-23 17:04 198 24.4
2014-Jul-23 16:54 198 24.4
2014-Jul-23 16:46 199 24.4
2014-Jul-23 16:35 200 0 gusting 3 24.4
2014-Jul-23 16:24 203 24.4
2014-Jul-23 16:15 202 24.4
2014-Jul-23 16:04 202 0 24.4
2014-Jul-23 16:00 206 24.4
2014-Jul-23 15:54 213 0 gusting 4 25.0
2014-Jul-23 15:45 213 25.0
2014-Jul-23 15:34 194 3 gusting 5 25.6
2014-Jul-23 15:30 188 0 gusting 7 25.0
2014-Jul-23 15:24 202 4 gusting 6 25.6
2014-Jul-23 15:15 166 2 gusting 7 26.1
2014-Jul-23 15:04 185 2 gusting 4 26.7
2014-Jul-23 15:00 183 2 gusting 7 26.7
2014-Jul-23 14:54 198 0 gusting 3 27.2
2014-Jul-23 14:45 190 3 gusting 7 27.2
2014-Jul-23 14:34 197 0 gusting 3 27.8
2014-Jul-23 14:30 205 3 gusting 7 27.8
2014-Jul-23 14:24 187 4 gusting 5 28.3
2014-Jul-23 14:15 215 3 gusting 8 28.9
2014-Jul-23 14:04 187 0 gusting 6 29.4
2014-Jul-23 13:59 163 29.4
2014-Jul-23 13:54 163 29.4
2014-Jul-23 13:44 164 29.4
2014-Jul-23 13:34 154 1 gusting 2 30.0
2014-Jul-23 13:29 113 0 gusting 6 29.4
2014-Jul-23 13:24 121 2 gusting 4 29.4
2014-Jul-23 13:14 094 2 gusting 6 28.3
2014-Jul-23 13:04 083 2 gusting 2 28.3
2014-Jul-23 12:59 052 2 gusting 11 27.8
2014-Jul-23 12:54 081 4 gusting 11 28.3
2014-Jul-23 12:44 093 1 gusting 5 28.3
2014-Jul-23 12:34 070 6 gusting 9 29.4
2014-Jul-23 12:29 083 3 gusting 11 29.4
2014-Jul-23 12:24 088 2 gusting 7 30.6
2014-Jul-23 12:14 275 31.1
2014-Jul-23 12:04 320 1 gusting 4 31.1
2014-Jul-23 11:59 278 30.6
2014-Jul-23 11:54 319 1 gusting 2 30.6
2014-Jul-23 11:44 329 3 gusting 3 30.6
2014-Jul-23 11:34 314 0 gusting 3 31.1
2014-Jul-23 11:29 288 3 gusting 7 31.1
2014-Jul-23 11:24 217 3 gusting 6 31.1
2014-Jul-23 11:13 332 3 gusting 8 30.6
2014-Jul-23 11:04 275 4 gusting 6 30.6
2014-Jul-23 10:58 277 0 gusting 6 30.6
2014-Jul-23 10:54 284 3 gusting 6 30.6
2014-Jul-23 10:44 260 2 gusting 6 29.4
2014-Jul-23 10:34 276 3 gusting 6 29.4
2014-Jul-23 10:28 275 1 gusting 6 29.4
2014-Jul-23 10:24 319 1 gusting 2 29.4
2014-Jul-23 10:14 302 0 gusting 3 28.9
2014-Jul-23 10:04 313 2 gusting 5 29.4
2014-Jul-23 09:58 017 2 gusting 6 29.4
2014-Jul-23 09:54 064 0 gusting 1 30.0
2014-Jul-23 09:44 069 0 gusting 4 30.0
2014-Jul-23 09:34 341 2 gusting 3 30.0
2014-Jul-23 09:28 084 1 gusting 4 29.4
2014-Jul-23 09:24 294 0 gusting 3 29.4
2014-Jul-23 09:14 022 1 gusting 2 30.0
2014-Jul-23 09:04 106 0 gusting 1 29.4
2014-Jul-23 08:57 106 28.9
2014-Jul-23 08:54 100 2 gusting 5 28.9
2014-Jul-23 08:44 056 3 gusting 5 28.3
2014-Jul-23 08:34 087 3 gusting 6 27.2
2014-Jul-23 08:27 030 2 gusting 6 26.7
2014-Jul-23 08:24 317 2 gusting 4 26.7
2014-Jul-23 08:14 035 1 gusting 4 26.1
2014-Jul-23 08:04 329 4 gusting 6 25.6
2014-Jul-23 07:57 338 4 gusting 8 25.0
2014-Jul-23 07:54 302 6 gusting 8 25.6
2014-Jul-23 07:44 328 4 gusting 7 25.0
2014-Jul-23 07:34 316 1 gusting 4 23.9
2014-Jul-23 07:26 292 4 gusting 8 23.3
2014-Jul-23 07:14 327 3 gusting 5 23.3
2014-Jul-23 07:11 318 4 gusting 7 22.8
2014-Jul-23 07:04 307 4 gusting 3 22.8
2014-Jul-23 06:56 299 2 gusting 6 22.2
2014-Jul-23 06:54 316 3 gusting 4 22.2
2014-Jul-23 06:44 301 4 gusting 6 21.7
2014-Jul-23 06:41 306 4 gusting 7 21.1
2014-Jul-23 06:34 312 3 gusting 5 21.7
2014-Jul-23 06:27 296 0 gusting 4 21.1
2014-Jul-23 06:24 305 2 gusting 3 21.1
2014-Jul-23 06:14 302 2 gusting 3 20.6
2014-Jul-23 06:11 301 2 gusting 5 20.6
2014-Jul-23 06:04 301 3 gusting 6 20.6
2014-Jul-23 05:56 292 2 gusting 5 20.0
2014-Jul-23 05:44 322 2 gusting 4 20.6
2014-Jul-23 05:40 307 1 gusting 5 20.6
2014-Jul-23 05:34 301 1 gusting 2 20.6
2014-Jul-23 05:25 299 1 gusting 6 20.0
2014-Jul-23 05:14 288 2 gusting 4 20.6
2014-Jul-23 05:10 280 0 gusting 4 20.0
2014-Jul-23 05:04 281 2 gusting 3 20.6
2014-Jul-23 04:55 277 1 gusting 3 20.0
2014-Jul-23 04:44 276 0 20.6
2014-Jul-23 04:40 276 3 gusting 6 20.6
2014-Jul-23 04:34 312 20.6
2014-Jul-23 04:25 311 20.0
2014-Jul-23 04:14 313 2 gusting 3 20.6
2014-Jul-23 04:10 313 1 gusting 5 20.0
2014-Jul-23 04:04 302 2 gusting 4 20.0
2014-Jul-23 03:55 322 3 gusting 6 20.0
2014-Jul-23 03:44 296 3 gusting 4 20.0
2014-Jul-23 03:39 302 2 gusting 5 20.0
2014-Jul-23 03:34 299 2 gusting 4 20.0
2014-Jul-23 03:24 290 3 gusting 4 20.0
2014-Jul-23 03:14 298 3 gusting 3 20.0
2014-Jul-23 03:09 300 2 gusting 4 20.0
2014-Jul-23 03:04 305 0 gusting 3 20.0
2014-Jul-23 02:54 306 0 gusting 2 20.0
2014-Jul-23 02:44 298 3 gusting 4 20.0
2014-Jul-23 02:39 300 2 gusting 5 20.0
2014-Jul-23 02:34 300 0 gusting 2 20.0
2014-Jul-23 02:24 299 20.0
2014-Jul-23 02:14 299 2 gusting 4 20.0
2014-Jul-23 02:09 303 3 gusting 5 20.0
2014-Jul-23 02:04 300 3 gusting 3 20.0
2014-Jul-23 01:54 323 3 gusting 4 20.0
2014-Jul-23 01:44 315 2 gusting 5 20.0
2014-Jul-23 01:39 310 1 gusting 7 20.0
2014-Jul-23 01:34 301 4 gusting 6 20.6
2014-Jul-23 01:24 299 3 gusting 5 20.6
2014-Jul-23 01:14 304 2 gusting 4 20.6
2014-Jul-23 01:08 304 3 gusting 6 20.6
2014-Jul-23 01:04 300 2 gusting 4 20.6
2014-Jul-23 00:54 300 3 gusting 6 21.1
2014-Jul-23 00:44 294 4 gusting 4 21.1
2014-Jul-23 00:38 323 3 gusting 6 21.1
2014-Jul-23 00:34 326 4 gusting 5 21.7
2014-Jul-23 00:24 335 0 gusting 3 21.7
2014-Jul-23 00:14 336 0 gusting 3 21.7
2014-Jul-23 00:08 336 0 gusting 4 21.7
2014-Jul-23 00:04 336 2 gusting 3 21.7
2014-Jul-22 23:54 338 1 gusting 2 21.7
2014-Jul-22 23:44 338 2 gusting 4 21.7
2014-Jul-22 23:39 338 1 gusting 5 21.1
2014-Jul-22 23:34 335 2 gusting 4 21.1
2014-Jul-22 23:24 319 3 gusting 6 21.1
2014-Jul-22 23:14 313 3 gusting 4 21.1
2014-Jul-22 23:08 303 2 gusting 5 21.1
2014-Jul-22 23:04 295 3 gusting 3 21.1
2014-Jul-22 22:54 311 4 gusting 6 21.1
2014-Jul-22 22:44 317 1 gusting 2 21.1
2014-Jul-22 22:37 317 1 gusting 6 20.6
2014-Jul-22 22:34 283 2 gusting 5 21.1
2014-Jul-22 22:24 303 3 gusting 6 21.1
2014-Jul-22 22:14 294 2 gusting 3 21.7
2014-Jul-22 22:07 285 1 gusting 4 21.1
2014-Jul-22 22:04 286 1 gusting 5 21.7
2014-Jul-22 21:54 284 2 gusting 6 21.7
2014-Jul-22 21:44 275 0 gusting 3 21.7
2014-Jul-22 21:37 273 0 gusting 2 21.7
2014-Jul-22 21:34 273 0 gusting 1 21.7
2014-Jul-22 21:24 273 22.2
2014-Jul-22 21:14 273 22.2
2014-Jul-22 21:07 272 21.7
2014-Jul-22 21:04 273 1 gusting 3 22.2
2014-Jul-22 20:54 273 0 gusting 0 22.2
2014-Jul-22 20:44 274 22.2
2014-Jul-22 20:37 274 22.2
2014-Jul-22 20:34 274 22.2
2014-Jul-22 20:28 274 22.2
2014-Jul-22 20:24 273 22.2
2014-Jul-22 20:14 273 22.2
2014-Jul-22 20:06 273 22.2
2014-Jul-22 20:04 274 22.2
2014-Jul-22 19:54 274 22.2
2014-Jul-22 19:51 274 22.2
2014-Jul-22 19:44 274 22.2
2014-Jul-22 19:34 272 22.2
2014-Jul-22 19:24 272 22.2
2014-Jul-22 19:21 272 22.2
2014-Jul-22 19:14 272 22.2
2014-Jul-22 19:06 272 22.2
2014-Jul-22 18:54 271 0 gusting 1 22.2
2014-Jul-22 18:51 271 0 gusting 3 22.2
2014-Jul-22 18:44 271 1 gusting 1 22.2
2014-Jul-22 18:36 270 22.2
2014-Jul-22 18:24 274 2 gusting 5 22.2
2014-Jul-22 18:21 341 0 gusting 6 21.7
2014-Jul-22 18:14 321 2 gusting 3 22.2
2014-Jul-22 18:06 314 3 gusting 8 21.7
2014-Jul-22 17:54 305 3 gusting 6 22.2
2014-Jul-22 17:50 289 5 gusting 9 21.7
2014-Jul-22 17:44 329 3 gusting 7 22.2
2014-Jul-22 17:34 332 4 gusting 6 22.2
2014-Jul-22 17:24 300 5 gusting 9 22.2
2014-Jul-22 17:21 355 3 gusting 8 22.2
2014-Jul-22 17:14 295 3 gusting 5 22.2
2014-Jul-22 17:05 327 1 gusting 7 22.2
2014-Jul-22 16:54 312 3 gusting 5 22.8
2014-Jul-22 16:50 300 3 gusting 6 22.2
2014-Jul-22 16:44 302 2 gusting 3 22.2
2014-Jul-22 16:35 319 2 gusting 5 22.2
2014-Jul-22 16:24 278 2 gusting 6 22.8
2014-Jul-22 16:20 272 4 gusting 11 22.8
2014-Jul-22 16:14 278 3 gusting 10 23.9
2014-Jul-22 16:05 296 8 gusting 16 25.6
2014-Jul-22 15:54 266 4 gusting 8 26.1
2014-Jul-22 15:51 278 4 gusting 8 26.1
2014-Jul-22 15:44 312 4 gusting 7 26.7
2014-Jul-22 15:35 315 2 gusting 8 26.7
2014-Jul-22 15:24 313 6 gusting 11 26.7
2014-Jul-22 15:19 317 6 gusting 10 26.7
2014-Jul-22 15:14 335 3 gusting 3 27.2
2014-Jul-22 15:04 304 5 gusting 6 27.8
2014-Jul-22 14:54 353 2 gusting 4 28.3
2014-Jul-22 14:49 304 3 gusting 8 28.3
2014-Jul-22 14:44 308 3 gusting 4 28.9
2014-Jul-22 14:34 305 6 gusting 6 28.9
2014-Jul-22 14:24 286 2 gusting 6 29.4
2014-Jul-22 14:19 287 0 gusting 7 28.9
2014-Jul-22 14:14 283 3 gusting 5 29.4
2014-Jul-22 14:05 269 4 gusting 7 29.4
2014-Jul-22 13:54 301 2 gusting 6 30.0
2014-Jul-22 13:49 301 1 gusting 4 30.0
2014-Jul-22 13:44 322 1 gusting 4 30.6
2014-Jul-22 13:34 265 0 gusting 3 30.6
2014-Jul-22 13:24 307 0 gusting 3 30.0
2014-Jul-22 13:19 288 2 gusting 8 30.0
2014-Jul-22 13:14 332 2 gusting 6 29.4
2014-Jul-22 13:04 342 3 gusting 6 29.4
2014-Jul-22 12:54 309 6 gusting 12 28.9
2014-Jul-22 12:48 300 4 gusting 12 28.9
2014-Jul-22 12:44 334 6 gusting 9 28.9
2014-Jul-22 12:34 315 9 gusting 11 28.3
2014-Jul-22 12:24 309 7 gusting 11 28.3
2014-Jul-22 12:18 307 7 gusting 14 27.8
2014-Jul-22 12:14 325 11 gusting 14 28.3
2014-Jul-22 12:04 320 11 gusting 18 27.8
2014-Jul-22 11:54 347 7 gusting 12 27.2
2014-Jul-22 11:48 329 11 gusting 18 26.7
2014-Jul-22 11:44 329 7 gusting 15 26.7
2014-Jul-22 11:34 334 13 gusting 17 27.2
2014-Jul-22 11:24 312 10 gusting 15 28.3
2014-Jul-22 11:18 322 7 gusting 13 28.3
2014-Jul-22 11:14 28.9
2014-Jul-22 11:04 319 4 gusting 6 30.0
2014-Jul-22 10:54 212 1 gusting 4 30.6
2014-Jul-22 10:47 206 0 gusting 7 30.6
2014-Jul-22 10:44 202 3 gusting 6 30.6
2014-Jul-22 10:34 293 1 gusting 3 30.6
2014-Jul-22 10:24 219 1 gusting 3 30.6
2014-Jul-22 10:17 225 2 gusting 6 30.6
2014-Jul-22 10:14 233 1 gusting 4 30.6
2014-Jul-22 10:04 193 1 gusting 6 30.6
2014-Jul-22 09:54 197 2 gusting 3 30.6
2014-Jul-22 09:47 188 1 gusting 5 30.6
2014-Jul-22 09:44 188 1 gusting 4 30.6
2014-Jul-22 09:34 202 1 gusting 5 30.6
2014-Jul-22 09:24 201 3 gusting 6 31.1
2014-Jul-22 09:17 187 0 gusting 6 31.1
2014-Jul-22 09:14 182 1 gusting 6 31.1
2014-Jul-22 09:04 167 31.7
2014-Jul-22 08:54 186 1 gusting 2 31.7
2014-Jul-22 08:47 163 1 gusting 4 31.1
2014-Jul-22 08:44 214 0 gusting 3 31.1
2014-Jul-22 08:34 245 0 gusting 4 31.1
2014-Jul-22 08:31 271 30.6
2014-Jul-22 08:24 279 1 gusting 1 30.0
2014-Jul-22 08:16 273 0 gusting 5 29.4
2014-Jul-22 08:04 297 1 gusting 4 28.9
2014-Jul-22 08:01 302 2 gusting 7 28.3
2014-Jul-22 07:54 283 3 gusting 4 28.9
2014-Jul-22 07:46 304 3 gusting 7 28.3
2014-Jul-22 07:34 284 1 gusting 1 28.3
2014-Jul-22 07:31 290 0 gusting 3 28.3
2014-Jul-22 07:24 284 1 gusting 2 28.3
2014-Jul-22 07:16 289 1 gusting 6 28.3
2014-Jul-22 07:04 276 3 gusting 3 28.3
2014-Jul-22 07:01 278 2 gusting 7 28.3
2014-Jul-22 06:54 281 2 gusting 2 27.8
2014-Jul-22 06:46 269 2 gusting 5 27.2
2014-Jul-22 06:34 268 1 gusting 2 27.8
2014-Jul-22 06:30 269 0 gusting 5 27.2
2014-Jul-22 06:24 290 27.2
2014-Jul-22 06:15 290 26.1
2014-Jul-22 06:04 291 26.1
2014-Jul-22 06:00 291 0 gusting 3 26.1